STARLINK-4196, 52859

Orbit data source: Space-Track

STARLINK-4196, 52859 is a payload satellite owned by SpaceX/Seattle (US) in LEO that was launched on Fri, 17 Jun 2022 UTC via an FALCON 9 launch vehicle from the Air Force Eastern Test Range (AFETR). Payload-class satellites include a variety of spacecraft equipped with specific instruments for various scientific and technological missions. These include communications satellites like Starlink; space stations such as the ISS; scientific satellites like the Hubble; Earth observation satellites from companies like Planet Labs, Umbra, and HawkEye 360; GPS; miniature CubeSats for education and research; and military/defense satellites.

Loading next visibility...
Identifier
52859, 2022-062AF
Orbit
LEO
Country
Flag of USUS
Related business
Manufacturer
SpaceX/Seattle
Mission
Operational Commercial Communications
Bus & Motor
STARLINK, Unknown motor
Mass
297 kg wet, ~275 kg dry
Launch date (UTC)
2022-06-17 (4 years ago)
Launch vehicle
FALCON 9
Launch site
Air Force Eastern Test Range (AFETR)
Object type
Payload
Rocket body
Debris
Shape & HBR
Box + 1 Pan, 10.1 m
Radar Cross Section
13.562 m², Large (>1 m²)

Expand to show TLE details & history
Last TLE update: 3 days ago

TLE from 3 days ago
0 STARLINK-4196
1 52859U 22062AF  26170.62089753  .00000040  00000-0  20580-4 0  9990
2 52859  53.1595 286.4202 0001106  90.9620 269.1498 15.08830772221316
Epoch: 2026-06-19T14:54Z
TLE epoch observation values (Epoch: 2026-06-19T14:54:05.546Z)
Latitude
-0.00004°
Longitude
155.04981°
Altitude
540.674 km
Speed
7.593 km/s
True Right ascension
19h 05m 40s
True Declination
0° 00' 00"
Sunlit
Object was in full shadow at epoch
Visualization orbit readout
Latitude
Unknown
Longitude
Unknown
Altitude
Unknown
Speed
Unknown
Apparent Right ascension
Unknown
Apparent Declination
Unknown
Sunlit
N/A
Visualization observer readout
Local Sidereal Time
21:35:21
Azimuth
Unknown
Elevation
Unknown
Doppler factor
Unknown
Orbital elements
Apogee altitude
540.791 km
Perigee altitude
539.261 km
Semi-major axis
6,918.163 km
Eccentricity
0.00011
Inclination
53.1595°
RAAN
286.4202°
Arg. of periapsis
90.962°
True anomaly
269.13713°
Mean anomaly
269.1498°
Eccentric anomaly
269.14346°
Mean motion
3.77187 °/min
Orbital period
95.44 mins
BSTAR
0.00002058
Loading maneuver chart data...
Computing Atmospheric mass density...
Loading historical data...
Loading historical data...
Loading historical data...
Loading historical data...
Loading historical data...
Loading historical data...
Loading historical data...

Documentation

Showing up to 5 results
|